Regional Weather Roundup
Issued by NWS

Home | Current Version | Previous Version | Text Only | Print | Product List | Glossary On
Versions: 1 2 3 4 5 6 7 8 9 10 11 12 13 14 15 16 17 18 19 20 21 22 23 24 25 26 27 28
000
ASUS42 KFFC 252303
RWRGA
WEATHER ROUNDUP FOR GEORGIA
NATIONAL WEATHER SERVICE PEACHTREE CITY GA
700 PM EDT SAT OCT 25 2014

NOTE: "FAIR" INDICATES FEW OR NO CLOUDS BELOW 12,000 FEET WITH NO
SIGNIFICANT WEATHER AND/OR OBSTRUCTIONS TO VISIBILITY.

* = USE WITH CAUTION. THE STATIONS MARKED WITH AN ASTERISK MAY NOT
REPORT WEATHER SUCH AS PRECIPITATION, FOG, OR THUNDER AND ARE NOT
QUALITY CONTROLLED BY NWS.

THE REMARK "TC" DENOTES TEMPERATURE READING IN DEGREES CELSIUS.

GAZ001>058-260000-
NORTH GEORGIA

CITY           SKY/WX    TMP DP  RH WIND       PRES   REMARKS
ATLANTA        PTCLDY    69  45  41 NW8       30.02R
ATHENS         CLEAR     66  46  48 SW3       29.99R
CHAMBLEE       CLEAR     68  45  43 NW7       30.02R
PEACHTREE CITY CLEAR     63  54  72 CALM      30.03R
ROME           MOCLDY    69  53  56 SW3       30.01S
WEST ATLANTA   CLEAR     68  48  48 NW5       30.02R
GAINESVILLE    CLEAR     68  49  50 W8        30.02R
CARTERSVILLE   CLEAR     63  53  70 CALM      30.03S


CITY           SKY/WX    TMP DP  RH WIND       PRES   REMARKS
DALTON*        CLEAR     63  55  77 CALM      30.02R
LAWRENCEVILLE* CLEAR     70  45  40 W7        30.01R
MARIETTA       CLEAR     66  50  56 W7        30.03R
KENNESAW*      CLEAR     70  46  43 W3        30.05R
$$

GAZ059>098-102>109-260000-
CENTRAL GEORGIA

CITY           SKY/WX    TMP DP  RH WIND       PRES   REMARKS
AUGUSTA-BUSH   CLEAR     65  39  38 CALM      29.96S
AUGUSTA-DANIEL CLEAR     70  42  36 W5        29.98R
COLUMBUS       CLEAR     75  48  38 N5        30.01R
MACON          CLEAR     67  49  52 CALM      29.99S
ROBINS AFB     CLEAR     65  55  70 CALM      29.97S


CITY           SKY/WX    TMP DP  RH WIND       PRES   REMARKS
LAGRANGE*      CLEAR     70  56  59 CALM      30.02S
SYLVANIA*      CLEAR     69  58  68 CALM      29.97S
MILLEDGEVILLE* CLEAR     64  57  77 CALM      29.99R
$$

GAZ099>101-110>166-260000-
SOUTH GEORGIA

CITY           SKY/WX    TMP DP  RH WIND       PRES   REMARKS
SAVANNAH       CLEAR     68  51  54 CALM      29.97R
VALDOSTA       CLEAR     66  43  43 CALM      29.98R
ALMA           CLEAR     66  51  58 CALM      29.97R
ST SIMONS      CLEAR     66  53  63 CALM      29.97R
FT STEWART     CLEAR     65  54  66 CALM      29.96R
ALBANY         CLEAR     67  53  61 CALM      30.01S
HUNTER AFB     CLEAR     62  52  70 W2        29.95R
MOODY AFB      CLEAR     69  45  41 NW5       29.98R
BRUNSWICK      CLEAR     63  55  77 CALM      29.98R


CITY           SKY/WX    TMP DP  RH WIND       PRES   REMARKS
BAINBRIDGE*    CLEAR     73  45  35 NW6       30.00S
MOULTRIE*      CLEAR     72  46  40 CALM      30.00S
VIDALIA*       CLEAR     66  55  68 CALM      29.97S
WAYCROSS*      CLEAR     69  56  62 CALM      29.97S
DOUGLAS*       CLEAR     70  45  40 CALM      29.99S
$$



USA.gov is the U.S. government's official web portal to all federal, state and local government web resources and services.